Regional Weather Roundup
Issued by NWS

Home | Current Version | Previous Version | Text Only | Print | Product List | Glossary On
Versions: 1 2 3 4 5 6 7 8 9 10 11 12 13 14 15 16 17 18 19 20 21 22 23 24 25 26 27 28 29 30 31 32 33 34 35 36 37 38 39 40 41 42 43 44 45 46 47 48 49 50
000
ASUS44 KMEG 231310
RWRTN
TENNESSEE HOURLY STATE WEATHER ROUNDUP
NATIONAL WEATHER SERVICE MEMPHIS TN
800 AM CDT THU OCT 23 2014

TNZ002-004-019-021-049-052-054-088>092-231400-
WEST TENNESSEE

CITY           SKY/WX    TMP DP  RH WIND       PRES   REMARKS
MEMPHIS INTL   PTCLDY    47  42  83 CALM      30.21R
NWS MEMPHIS      N/A     42 N/A N/A MISG        N/A
JACKSON        CLEAR     43  40  89 CALM      30.19S
DYERSBURG      CLEAR     43  30  61 CALM      30.23R
UNION CITY     CLEAR     39  39 100 NW3       30.19R
PARIS          CLEAR     43  39  87 E7        30.20S
LEXINGTON      CLEAR     39  37  93 NE3       30.18S
SAVANNAH       CLEAR     37  37 100 CALM      30.18S
$$

TNZ008-025-027-028-033-062-065-066-231400-
NORTH MIDDLE TENNESSEE

CITY           SKY/WX    TMP DP  RH WIND       PRES   REMARKS
NASHVILLE      MOSUNNY   45  41  86 CALM      30.23S
CLARKSVILLE    CLEAR     39  39 100 NE3       30.24R FOG
SMYRNA         SUNNY     38  38 100 CALM      30.24S
COOKEVILLE     SUNNY     37  36  93 CALM      30.21R
CROSSVILLE     SUNNY     40  37  89 E6        30.20F
$$

TNZ061-075-076-078-094-096-097-231400-
SOUTH MIDDLE TENNESSEE

CITY           SKY/WX    TMP DP  RH WIND       PRES   REMARKS
TULLAHOMA      SUNNY     41  37  87 NE3       30.20R
WINCHESTER     SUNNY     36  34  93 CALM      30.19S
MCMINNVILLE    CLOUDY    36  36 100 CALM      30.20S VSB 0
COLUMBIA       SUNNY    N/A N/A N/A CALM      30.19R
SHELBYVILLE    SUNNY     39  39 100 CALM      30.21S
$$

TNZ017-018-042-046-047-231400-
NORTHEAST TENNESSEE

CITY           SKY/WX    TMP DP  RH WIND       PRES   REMARKS
TRI CITIES     CLOUDY    48  38  68 N3        30.22R
ELIZABETHTON   CLOUDY    45  37  76 W3        30.21R
$$

TNZ012-013-036-069-073-074-231400-
CENTRAL EAST TENNESSEE

CITY           SKY/WX    TMP DP  RH WIND       PRES   REMARKS
KNOXVILLE      MOSUNNY   46  41  82 N7        30.21R
OAK RIDGE      CLOUDY    47  42  83 CALM      30.24R
GATLINBURG     CLOUDY    41  39  93 CALM      30.22R
MORRISTOWN     CLOUDY    46  39  76 NE3       30.23R
$$

TNZ083-085-099-231400-
SOUTHEAST TENNESSEE

CITY           SKY/WX    TMP DP  RH WIND       PRES   REMARKS
CHATTANOOGA    SUNNY     50  41  71 N9        30.20S
$$

SKY/WX REPORTED AS FAIR MEANS FEW OR NO CLOUDS BELOW
12 THOUSAND FEET.




USA.gov is the U.S. government's official web portal to all federal, state and local government web resources and services.